User: anonymous   Login
Location: ?????
(38.3715°N, 23.0573°E)
Time: 01:13:02
(UTC+00:00)
Language:

CZ-4B R/B - Orbit

View from above orbital plane
View from above orbital plane
View from above satellite
View from above satellite

Ground track
Ground track

The orbit data is extracted from the following two-line orbital elements,

1 27432U 02024C   25140.60497959  .00000042  00000-0  44666-4 0  9993
2 27432  98.9251 189.7330 0051030 134.0846 350.6203 14.14481364187809
Epoch (UTC): 20 May 2025 14:31:10
Eccentricity: 0.0051030
inclination: 98.9251°
perigee height: 807 km
apogee height: 881 km
right ascension of ascending node: 189.7330°
argument of perigee: 134.0846°
revolutions per day: 14.14481364
mean anomaly at epoch: 350.6203°
orbit number at epoch: 18780

The dashed part of the orbit path shows where the satellite is in the earth's shadow,  

DLR